Home > Weather > Redlands > Past weeks

Flag for U.S.A. Weather for the Past 2 Weeks in Redlands, California, U.S.A.

Now
44 °F

Clear.


Feels Like: 44 °F
Forecast: 51 / 83 °F
Wind: No wind

Location: Riverside / March Air Force Base

Current Time: Feb 11, 2016 at 1:35:26 AM

Latest Report: Feb 11, 2016 at 12:58 AM


Visibility: 10 mi

Pressure: 30.12 "Hg

Humidity: 57%

Dew point: 30 °F

Location of RedlandsLocation

Historic Weather in Redlands — Graph

°F

Redlands Temperature Yesterday

Maximum temperature yesterday: 85 °F (at 1:58 PM)
Minimum temperature yesterday: 40 °F (at 6:58 AM)
Average temperature yesterday: 62 °F

High & Low Weather Summary for the Past Weeks

 TemperatureHumidityPressure
High85 °F (Feb 10, 1:58 PM)100% (Jan 30, 6:58 PM)30.37 "Hg (Jan 30, 6:58 PM)
Low28 °F (Feb 2, 5:58 AM)8% (Feb 10, 2:58 PM)29.59 "Hg (Jan 31, 2:58 PM)
Average55 °F42%30.13 "Hg
* Reported Jan 26 10:58 PM — Feb 10 10:58 PM, Redlands, Weather by CustomWeather, © 2016

Note: Actual official high and low records may vary slightly from our data, if they occured in-between our weather recording intervals... More about our weather records

Advertising

Redlands Weather History for the Previous 24 Hours

 ConditionsComfort  
Time TempWeatherWind HumidityBarometerVisibility
10:58 PM
Wed, Feb 10
50 °FClear.No wind44%30.13 "Hg10 mi
9:58 PM52 °FClear.2 mph40%30.13 "Hg10 mi
8:58 PM56 °FClear.1 mph33%30.14 "Hg10 mi
7:58 PM68 °FClear.5 mph18%30.12 "Hg10 mi
6:58 PM65 °FClear.No wind18%30.12 "Hg10 mi
5:59 PM73 °FClear.7 mph14%30.11 "Hg10 mi
4:58 PM80 °FSunny.7 mph10%30.09 "Hg10 mi
3:58 PM84 °FSunny.8 mph10%30.09 "Hg10 mi
2:58 PM85 °FSunny.5 mph8%30.08 "Hg10 mi
1:58 PM85 °FSunny.9 mph9%30.09 "Hg10 mi
12:58 PM84 °FPassing clouds.3 mph11%30.11 "Hg10 mi
11:58 AM81 °FSunny.1 mph12%30.16 "Hg10 mi
10:58 AM77 °FSunny.2 mph16%30.17 "Hg10 mi
9:58 AM70 °FSunny.No wind23%30.18 "Hg10 mi
8:58 AM60 °FSunny.No wind37%30.20 "Hg10 mi
7:58 AM51 °FSunny.No wind51%30.19 "Hg10 mi
6:58 AM40 °FSunny.3 mph64%30.17 "Hg10 mi
5:58 AM40 °FClear.No wind62%30.17 "Hg10 mi
4:59 AM43 °FClear.No wind59%30.15 "Hg10 mi
3:58 AM46 °FClear.No wind53%30.14 "Hg10 mi
2:58 AM47 °FClear.No wind49%30.14 "Hg10 mi
1:58 AM48 °FClear.5 mph43%30.14 "Hg10 mi
Weather by CustomWeather, © 2016

See weather overviewHow to use our weather pages